Regional Weather Roundup
Issued by NWS

Home | Current Version | Previous Version | Graphics & Text | Print | Product List | Glossary On
Versions: 1 2 3 4 5 6 7 8 9 10 11 12 13 14 15 16 17 18 19 20 21 22 23 24 25 26 27 28 29 30 31 32 33 34 35 36 37 38 39 40 41 42 43 44 45 46 47 48 49 50
000
ASUS43 KLOT 020708
RWRIL

ILLINOIS REGIONAL WEATHER ROUNDUP
NATIONAL WEATHER SERVICE CHICAGO/ROMEOVILLE IL
200 AM CDT MON MAY 02 2016

NOTE: "FAIR" INDICATES FEW OR NO CLOUDS BELOW 12,000 FEET WITH NO
SIGNIFICANT WEATHER AND/OR OBSTRUCTIONS TO VISIBILITY.

* THESE STATIONS ARE NOT UNDER NWS QUALITY CONTROL. THEY ALSO MAY NOT
  REPORT WEATHER SUCH AS PRECIPITATION OR FOG.

ILZ001-002-007-009-015-016-024-020800-
NORTHWEST ILLINOIS

CITY           SKY/WX    TMP DP  RH WIND       PRES   REMARKS
MOLINE         CLOUDY    50  46  86 CALM      30.05S
STERLING*      CLOUDY    48  46  93 N6        30.05S
SAVANNA*       CLOUDY    48  45  89 N7        30.06R
$$

ILZ003-004-008-010-011-017-018-020800-
NORTH CENTRAL ILLINOIS

CITY           SKY/WX    TMP DP  RH WIND       PRES   REMARKS
ROCKFORD       CLOUDY    47  43  86 NE10      30.06F
FREEPORT*      CLOUDY    46  45  93 NE7       30.07S
ROCHELLE*      CLOUDY    47  45  93 NE12      30.04S
DE KALB*       CLOUDY    45  43  91 NE10      30.04R
$$

ILZ005-006-012>014-019>023-020800-
NORTHEAST ILLINOIS

CITY           SKY/WX    TMP DP  RH WIND       PRES   REMARKS
CHICAGO-OHARE  CLOUDY    44  41  89 NE16      30.01F
CHICAGO-MIDWAY CLOUDY    45  41  86 N15       30.01R
AURORA         CLOUDY    46  43  89 NE13      30.02R
LANSING*       CLOUDY    46  45  97 N7        30.00S
JOLIET*        CLOUDY    47  46  93 NE8G17    30.00S
WAUKEGAN       CLOUDY    44  42  93 N7        30.04S
DUPAGE AIRPORT CLOUDY    45  41  86 NE12      30.01S
KANKAKEE*      CLOUDY    48  47  95 N9        29.99S FOG
WHEELING       CLOUDY    44  41  89 NE10      30.03F
MORRIS*        CLOUDY    47  45  91 NE3       30.00S
ROMEOVILLE*    CLOUDY    45  42  90 NE13      30.01R
NORTHERLY ISL    N/A     44  41  89 MISG        N/A
NORTHERLY ISL    N/A     44  41  89 MISG        N/A
$$

LMZ740>746-020800-
SOUTHERN LAKE MICHIGAN

STATION/POSITION SKY/WX   TEMP    WIND        PRES    VSBY  WAVE
                          AIR SEA DIR/SP/G                  HT/PER
                          (F)     (DEG/KT/KT) (MB)    (MI)  (FT/S)
SOUTHERN BUOY              42 40   40/  8/ 10 1017.0F         2/ 4
HARRISON CRIB              45      10/ 17/ 18   N/A
BURNHAM HARBOR             43     360/ 11/ 16   N/A
CALUMET HARBOR             44     330/  9/ 13 1015.6R
BURNS HARBOR               45      20/ 15/ 19 1015.9R
MICHIGAN CITY              47      20/ 15/ 17   N/A
ST. JOSEPH                 46 47                N/A           3/ 4
$$

ILZ025>027-034>036-040-047-049-050-058-095>099-020800-
WEST-CENTRAL ILLINOIS

CITY           SKY/WX    TMP DP  RH WIND       PRES   REMARKS
QUINCY         CLOUDY    49  47  93 NW8       30.07S
GALESBURG*     CLOUDY    47  46  95 N6        30.05S
MACOMB*        CLOUDY    49  49  98 NW7       30.08R
JACKSONVILLE*  CLOUDY    51  48  90 NW10      30.04S
PITTSFIELD*    CLOUDY    51  49  91 NW7       30.07S
$$

ILZ028>032-037-038-041>044-048-051>054-059>061-020800-
CENTRAL ILLINOIS

CITY           SKY/WX    TMP DP  RH WIND       PRES   REMARKS
PONTIAC        CLOUDY    49  49  97 N8        30.00F
BLOOMINGTON    CLOUDY    48  48 100 N12       30.01S
DECATUR        CLOUDY    52  48  86 NW8       30.00F
PEORIA         CLOUDY    48  45  89 N5        30.04R
LACON*         CLOUDY    47  46  93 N5        30.02R
LINCOLN*       CLOUDY    50  48  92 N6        30.02S
SPRINGFIELD    CLOUDY    52  50  93 NW7       30.02S
TAYLORVILLE    CLOUDY    52  48  87 NW13      30.01S
$$

ILZ033-039-045-046-055>057-062-063-020800-
EAST-CENTRAL ILLINOIS

CITY           SKY/WX    TMP DP  RH WIND       PRES   REMARKS
CHAMPAIGN      CLOUDY    50  47  89 N9        29.98S
RANTOUL*       CLOUDY    51  49  93 NW9       29.98S FOG
MATTOON        CLOUDY    53  49  86 NW12      29.97S
PARIS*         MOCLDY    51  51  99 NW5       29.99R FOG
$$

ILZ079-100>102-020800-
SOUTHWEST ILLINOIS

CITY           SKY/WX    TMP DP  RH WIND       PRES   REMARKS
ALTON          PTCLDY    51  48  89 NW5       30.04S
BELLEVILLE     PTCLDY    53  53  99 NW5       30.03R
CAHOKIA*       PTCLDY    54  48  80 NW8       30.04R
SPARTA*        PTCLDY    54  50  87 NW5       30.04S
$$

ILZ064>066-069>071-074>076-080>082-084>086-088>090-092>094-020800-
SOUTH-CENTRAL ILLINOIS

CITY           SKY/WX    TMP DP  RH WIND       PRES   REMARKS
CARBONDALE     PTCLDY    57  52  83 N7        30.02S
CAIRO*         CLEAR     59  49  69 NW7       30.00S
EFFINGHAM*     CLOUDY    55  54  95 W7        30.01S
MARION         PTCLDY    57  55  94 CALM      30.02S
MT. VERNON     PTCLDY    55  46  71 CALM      30.02S
CENTRALIA*     PTCLDY    56  52  87 NW8       30.01S
SALEM*         MOCLDY    56  51  85 NW6       30.02S
METROPOLIS*    CLEAR     60  51  73 N3        30.00S
$$

ILZ067-068-072-073-078-083-087-091-020800-
SOUTHEAST ILLINOIS

CITY           SKY/WX    TMP DP  RH WIND       PRES   REMARKS
LAWRENCEVILLE  MOCLDY    58  54  86 NW8       29.98R
FLORA*         CLEAR     56  52  89 W3        30.01R
FAIRFIELD*     PTCLDY    55  52  90 CALM      30.00S
HARRISBURG*    PTCLDY    57  53  86 NW5       30.01S
ROBINSON*      MOCLDY    54  50  86 NW9G17    30.00R
CARMI*         CLEAR     57  52  85 NW7       30.00R
$$

ABBREVIATIONS USED IN REMARKS
   TC - TEMPERATURE IN CELSIUS
  WCI - WIND CHILL INDEX
   HX - HEAT INDEX
  VSB - VISIBILITY
$$




USA.gov is the U.S. government's official web portal to all federal, state and local government web resources and services.